Regional Weather Roundup
Issued by NWS Green Bay, WI

Home | Current Version | Previous Version | Text Only | Print | Product List | Glossary On
Versions: 1 2 3 4 5 6 7 8 9 10 11 12 13 14 15 16 17 18 19 20 21 22 23 24 25 26 27 28 29 30 31 32 33 34 35 36 37 38 39 40 41 42 43 44 45 46 47 48 49 50
000
ASUS43 KGRB 171710
RWRGRB

NORTH-CENTRAL AND NORTHEAST WISCONSIN REGIONAL WEATHER ROUNDUP
NATIONAL WEATHER SERVICE GREEN BAY WI
1200 PM CDT THU APR 17 2014

WIZ005-009-010>012-018-019-171800-
NORTH CENTRAL WISCONSIN

CITY           SKY/WX    TMP DP  RH WIND       PRES   REMARKS
IRONWOOD       CLOUDY    34  28  80 W8        30.10R
MANITOWISH WTR CLOUDY    33  32  96 SW5       30.11R FOG
ARBOR VITAE    CLOUDY    37  33  86 SW3       30.11R FOG
EAGLE RIVER    CLOUDY    34  32  93 S3        30.10R
LAND O LAKES   CLOUDY    34  32  90 S5        30.11R
RHINELANDER    CLOUDY    34  31  88 SW6       30.11R FOG
PHILLIPS       CLOUDY    34  32  94 SW5       30.13R FOG
ANTIGO         CLOUDY    37  32  83 CALM      30.11R
TOMAHAWK       CLOUDY    35  32  90 CALM      30.12R FOG
MERRILL        CLOUDY    36  33  89 CALM      30.12S FOG
$$

WIZ013-073-171800-
NORTHEAST WISCONSIN

CITY           SKY/WX    TMP DP  RH WIND       PRES   REMARKS
IRON MOUNTAIN  CLOUDY    33  30  88 SE12      30.12R
MARINETTE      CLOUDY    37  30  75 SE9       30.14S
OCONTO         CLOUDY    41  32  72 S8        30.13R
$$

WIZ017-030-035>037-045-171800-
CENTRAL WISCONSIN

CITY           SKY/WX    TMP DP  RH WIND       PRES   REMARKS
MEDFORD        CLOUDY    34  33  94 W9        30.14R FOG
WAUSAU         CLOUDY    39  34  82 NW7       30.10R
MOSINEE        CLOUDY    43  36  75 W9        30.12S
MARSHFIELD     CLOUDY    43  37  79 W16       30.12R
WISC RAPIDS    PTSUNNY   48  35  60 W13       30.13R
STEVENS POINT  CLOUDY    44  33  66 W10G16    30.12R
WAUPACA        SUNNY     54  34  47 NW9       30.10S
SHAWANO        SUNNY     46  37  70 N3        30.11S
CLINTONVILLE   SUNNY     46  36  66 S3        30.11R
$$

WIZ038-039-048-051-171800-
FOX VALLEY

CITY           SKY/WX    TMP DP  RH WIND       PRES   REMARKS
NWS GREEN BAY  MOSUNNY   47  38  71 S9        30.12R
APPLETON       PTSUNNY   48  36  61 SW10      30.11R
OSHKOSH        PTSUNNY   50  37  61 SW8       30.11R
FOND DU LAC    CLOUDY    47  36  65 SW10      30.12R
$$

WIZ022-050-052-171800-
EAST CENTRAL WISCONSIN

CITY           SKY/WX    TMP DP  RH WIND       PRES   REMARKS
STURGEON BAY   CLOUDY    37  30  75 S14G23    30.14S
MANITOWOC      MOSUNNY   44  35  70 S14       30.14R
SHEBOYGAN      CLOUDY    49  36  61 SW15      30.13R
$$

LMZ563-521-522-541>543-171800-
LAKESHORE

STATION/POSITION TIME  TEMP    WIND        PRES    VSBY  WAVE
                       AIR SEA DIR/SP/G                  HT/PER
                 (UTC) (F)     (DEG/KT/KT) (MB)    (MI)  (FT/S)
SHEBOYGAN LKSHOR 1700   38     160/ 14/ 15 1021.3R
KEWAUNEE LKSHORE 1700   38     180/ 15/ 18 1021.4R
NORTHPORT PIER   1700   35     120/ 10/ 11 1021.3F
SISTER BAY LKSHO 1700   41     150/ 13/ 16   N/A
MENOMINEE LKSHOR 1700   35     130/  8/  8 1021.3R
$$



USA.gov is the U.S. government's official web portal to all federal, state and local government web resources and services.